Regional Weather Roundup
Issued by NWS

Home | Current Version | Previous Version | Text Only | Print | Product List | Glossary Off
Versions: 1 2 3 4 5 6 7 8 9 10 11 12 13 14 15 16 17 18 19 20 21 22 23 24 25 26 27 28 29 30 31 32 33 34 35 36 37 38 39 40 41 42 43 44 45 46 47 48 49 50

000
ASUS45 KPSR 222110
RWRAZ

ARIZONA REGIONAL HOURLY WEATHER ROUNDUP
NATIONAL WEATHER SERVICE PHOENIX AZ
200 PM MST FRI AUG 22 2014

NOTE: FAIR INDICATES FEW OR NO CLOUDS BELOW 12,000 FEET WITH NO
SIGNIFICANT WEATHER AND/OR OBSTRUCTIONS TO VISIBILITY.

AZZ001>003-036-222200-
NORTHWEST ARIZONA

CITY           SKY/WX    TMP DP  RH WIND       PRES   REMARKS
BULLHEAD CITY  SUNNY     93  55  27 SW9G20    29.88F
KINGMAN        MOSUNNY   81  55  40 MISG      30.04F
$$

AZZ004>008-015-016-018-222200-
NORTH CENTRAL ARIZONA

CITY           SKY/WX    TMP DP  RH WIND       PRES   REMARKS
GRAND CANYON   MOSUNNY   68  48  48 S15G215   30.22F
WILLIAMS       MOSUNNY   68  46  45 SW7       30.29F
PRESCOTT       PTSUNNY   72  50  45 SW8G20    30.15S
FLAGSTAFF      PTSUNNY   66  47  50 SW15      30.25F
PAYSON         PTSUNNY   75  52  43 W9G15     30.17F
PAGE           MOSUNNY   80  49  33 CALM      30.03F
$$

AZZ009>014-017-222200-
NORTHEAST ARIZONA

CITY           SKY/WX    TMP DP  RH WIND       PRES   REMARKS
WINSLOW        MOSUNNY   80  49  33 W8        30.11F
SAINT JOHNS    CLOUDY    72  49  44 W17       30.16S
WINDOW ROCK    CLOUDY    71  43  36 SW13      30.20F
SHOW LOW       LGT RAIN  59  50  72 SW8       30.26S
$$

AZZ023-222200-
GREATER PHOENIX AREA

CITY           SKY/WX    TMP DP  RH WIND       PRES   REMARKS
PHOENIX        MOSUNNY   90  60  36 NW5       29.92F
BUCKEYE          N/A     86  64  48 S3        29.93F
GLENDALE       MOSUNNY   90  59  35 S5        29.94F
LUKE AFB       NOT AVBL
DEER VALLEY    SUNNY     87  58  37 SW6       29.93F
SCOTTSDALE     MOSUNNY   88  59  37 VRB3      29.96F
MESA-FALCON    MOSUNNY   90  57  33 SW6       29.93F
CHANDLER       MOSUNNY   90  57  33 W7        29.93F
$$

AZZ027-028-222200-
SOUTHWEST MARICOPA COUNTY AND PINAL COUNTY

CITY           SKY/WX    TMP DP  RH WIND       PRES   REMARKS
CASA GRANDE    SUNNY     91  57  31 CALM      29.94F
GILA BEND      PTCLDY    91  59  33 W7G16     29.81S
$$

AZZ503-504-507>509-222200-
SOUTHEAST ARIZONA

CITY           SKY/WX    TMP DP  RH WIND       PRES   REMARKS
TUCSON         PTSUNNY   88  56  33 VRB3      30.01F
DAVIS-MONTHAN  MOSUNNY   87  57  35 VRB5      29.99F
RYAN FIELD       N/A     88  57  35 E3        30.00F
NOGALES        PTSUNNY   83  60  45 W10       30.10F
SIERRA VISTA   LGT RAIN  73  61  64 NE5       30.15F
DOUGLAS        PTSUNNY   75  61  61 NW7       30.11F
SAFFORD        LGT RAIN  85  56  37 NW8       30.00F
$$

AZZ020-021-025-026-031-222200-
SOUTHWEST ARIZONA

CITY           SKY/WX    TMP DP  RH WIND       PRES   REMARKS
YUMA           MOSUNNY   92  55  28 VRB3      29.88F
$$

CAZ031-033-041-043-047-048-061-222200-
SOUTHERN CALIFORNIA

CITY           SKY/WX    TMP DP  RH WIND       PRES   REMARKS
DOWNTOWN L.A.  SUNNY     79  64  60 VRB5      29.94F
L.A. AIRPORT   MOSUNNY   74  63  68 W12       29.96F
SAN DIEGO      MOSUNNY   78  63  59 W8        29.96F
BURBANK        SUNNY     83  61  47 S13       29.95F
ONTARIO        MOSUNNY   88  59  37 W10G21    29.94F
RIVERSIDE      SUNNY     88  61  40 W8G18     29.93F
PALM SPRINGS   SUNNY     92  58  31 S9        29.89F
EL CENTRO NAS  MOSUNNY   89  63  41 E5        29.86F
IMPERIAL       SUNNY     88  65  46 E6        29.86F
BLYTHE         SUNNY     87  57  35 CALM      29.89F
NEEDLES        SUNNY     94  51  23 W7        29.88F
$$

NVZ020-UTZ003-222200-
SOUTHERN NEVADA-UTAH

CITY           SKY/WX    TMP DP  RH WIND       PRES   REMARKS
LAS VEGAS      MOSUNNY   91  49  23 S10G25    29.86F
SALT LAKE CITY TSTM      67  56  67 NW16G36   29.95R
$$

NMZ009-TXZ055-222200-
NEW MEXICO-WEST TEXAS

CITY           SKY/WX    TMP DP  RH WIND       PRES   REMARKS
ALBUQUERQUE    CLOUDY    64  58  80 NE6       30.20F
EL PASO        LGT RAIN  75  62  64 SE5       30.11F
$$


........................KEY........................
SKY/WX - SKY CONDITION/WEATHER
TMP    - TEMPERATURE IN FAHRENHEIT
DP     - DEW POINT IN FAHRENHEIT
RH     - RELATIVE HUMIDITY IN PERCENT
WIND   - DIRECTION AND SPEED IN MILES PER HOUR (MPH)
VRB    - VARIABLE WIND DIRECTION
PRES   - MEAN SEA LEVEL PRESSURE IN INCHES OF MERCURY
         F - FALLING PRESSURE   R - RISING PRESSURE
         S - STEADY PRESSURE
VSB    - VISIBILITY IN MILES
HX     - HEAT INDEX IN FAHRENHEIT
WCI    - WIND CHILL INDEX IN FAHRENHEIT
TC     - TEMPERATURE IN CELSIUS WHICH IS ALSO KNOWN AS
         TEMPERATURE IN CENTIGRADE
AFB    - AIR FORCE BASE
         LUKE AFB IS LUKE AIR FORCE BASE
         DAVIS-MONTHAN IS DAVIS-MONTHAN AIR FORCE BASE
NAS    - NAVAL AIR STATION
         EL CENTRO NAS IS EL CENTRO NAVAL AIR STATION
N/A    - NOT AVAILABLE



USA.gov is the U.S. government's official web portal to all federal, state and local government web resources and services.